Flag for U.S.A. Weather past 2 weeks in Tulsa, Oklahoma, U.S.A.

Now
78 °F

Passing clouds.


Feels Like: 80 °F
Forecast: 72 / 91 °F
Wind: 8 mph from South

Location: Tulsa International Airport

Current Time: Sep 2, 2015 at 1:31:31 AM

Latest Report: Sep 2, 2015 at 12:53 AM


Visibility: 10 mi

Pressure: 29.98 "Hg

Humidity: 71%

Dew point: 68 °F

Location of TulsaLocation

Historic Weather in Tulsa — Graph

°F

Tulsa temperature yesterday

Maximum temperature yesterday: 91 °F (at 2:53 PM)
Minimum temperature yesterday: 72 °F (at 6:53 AM)
Average temperature yesterday: 81 °F

Past Weeks' High & Low Weather Summary

 TemperatureHumidityPressure
High92 °F (Aug 31, 2:53 PM)100% (Aug 19, 2:59 AM)30.16 "Hg (Aug 19, 2:59 AM)
Low56 °F (Aug 20, 6:53 AM)27% (Aug 25, 3:53 PM)29.60 "Hg (Aug 18, 7:53 PM)
Average75 °F73%29.96 "Hg
* Reported Aug 17 11:53 PM — Sep 1 11:53 PM, Tulsa, Weather by CustomWeather, © 2015

Note: Actual official high and low records may vary slightly from our data, if they occured in-between our weather recording intervals... More about our weather records

Advertising

Tulsa weather history for previous 24 hours

 ConditionsComfort  
Time TempWeatherWind HumidityBarometerVisibility
11:53 PM
Tue, Sep 1
76 °FClear.6 mph80%29.99 "Hg10 mi
10:53 PM76 °FClear.6 mph82%29.99 "Hg10 mi
9:53 PM78 °FClear.7 mph76%29.98 "Hg10 mi
8:53 PM80 °FClear.8 mph74%29.96 "Hg10 mi
7:53 PM84 °FSunny.8 mph61%29.95 "Hg10 mi
6:53 PM88 °FSunny.13 mph52%29.94 "Hg10 mi
5:53 PM90 °FScattered clouds.13 mph48%29.93 "Hg10 mi
3:53 PM91 °FScattered clouds.13 mph49%29.95 "Hg10 mi
2:53 PM91 °FScattered clouds.12 mph49%29.96 "Hg10 mi
1:53 PM89 °FScattered clouds.14 mph53%29.98 "Hg10 mi
12:53 PM88 °FPassing clouds.12 mph57%29.99 "Hg10 mi
11:53 AM86 °FSunny.9 mph59%30.01 "Hg10 mi
10:53 AM83 °FSunny.8 mph63%30.01 "Hg10 mi
9:53 AM80 °FSunny.12 mph69%30.01 "Hg10 mi
8:53 AM77 °FSunny.10 mph74%30.01 "Hg10 mi
7:53 AM74 °FClear.6 mph82%30.01 "Hg9 mi
6:53 AM72 °FClear.6 mph87%29.99 "Hg9 mi
5:53 AM74 °FClear.7 mph82%29.99 "Hg10 mi
4:53 AM75 °FClear.7 mph82%29.98 "Hg10 mi
3:53 AM76 °FClear.8 mph80%29.98 "Hg10 mi
2:53 AM76 °FClear.7 mph82%29.97 "Hg10 mi
1:53 AM77 °FClear.5 mph82%29.97 "Hg10 mi
Weather by CustomWeather, © 2015

See weather overviewHow to use our weather pages